Other Public Products
Issued by NWS Charleston, SC

Current Version | Previous Version | Graphics & Text | Print | Product List | Glossary Off
Versions: 1 2 3 4 5 6 7 8 9 10 11 12 13 14 15 16 17 18 19 20 21 22 23 24 25 26 27 28 29 30 31 32 33 34 35 36 37 38 39 40 41 42 43 44 45 46 47 48 49 50
000 FPUS82 KCHS 251027 OPUCHS TEST...KCHS/KSAV Gateway Observations...TEST National Weather Service Charleston SC 600 AM EDT TUE JUL 25 2017 NOTE: "fair" indicates few or no clouds below 12,000 feet with no significant weather and/or obstructions to visibility. SCZ050-WAZ558-NCZ071-TXZ119-213-PAZ071-DCZ001-FLZ074-172-MI076- NYZ176-178-MAZ016-IL014-TNZ027-NJZ106-GAZ044-MD014-251100- ...Gateway Observations for Charleston International... CITY SKY/WX TMP DP RH WIND PRES REMARKS Chas Airport PTCLDY 76 74 93 NW3 30.02S Seattle CLEAR 65 50 58 N9 30.00S Charlotte MOCLDY 73 71 93 CALM 30.04R Dallas DFW PTCLDY 79 75 87 S8 30.01R Dallas Love PTCLDY 79 73 82 S8 30.02R Philladelphia CLOUDY 67 64 90 NE6 30.00R Wash National MOCLDY 72 58 61 NW10 30.03R Baltimore MOCLDY 65 61 87 W6 30.01R Miami PTCLDY 83 77 82 E3 30.09S HX 92 Detroit PTCLDY 56 51 84 W3 30.19R Newark DRIZZLE 62 60 93 N7 30.01R FOG Laguardia CLOUDY 62 60 93 NE7 30.01R J F K CLOUDY 64 60 87 NE7 30.02R Boston Logan CLOUDY 56 55 97 N9 30.03R FOG Ft. Lauderdale PTCLDY 82 78 88 CALM 30.08S HX 91 Chicago O`Hare PTCLDY 63 59 87 CALM 30.16R Chicago Midway PTCLDY 66 62 87 SE3 30.16R Houston Bush CLOUDY 81 74 79 S5 30.05S Houston Hobby CLOUDY 81 74 79 CALM 30.05R Nashville PTCLDY 76 74 93 CALM 30.06R Atlanta MOCLDY 74 71 91 W5 30.07R $$ GAZ044-118-TXZ119-213-NCZ071-DCZ001-MDZ014-506-PAZ021-071-NJZ106- NYZ176-178-MAZ106-OHZ011-021-055-MIZ076-KYZ091-ILZ014-INZ047- MNZ060-ONZ431-251100- ...Gateway Observations for Savannah International... CITY SKY/WX TMP DP RH WIND PRES REMARKS Savannah Arpt PTCLDY 76 73 91 W6 30.04R Atlanta MOCLDY 74 71 91 W5 30.07R Charlotte MOCLDY 73 71 93 CALM 30.04R Dallas DFW PTCLDY 79 75 87 S8 30.01R Houston Bush CLOUDY 81 74 79 S5 30.05S Wash National MOCLDY 72 58 61 NW10 30.03R Wash Dulles PTCLDY 66 56 70 W7 30.04R Baltimore MOCLDY 65 61 87 W6 30.01R Philadelphia CLOUDY 67 64 90 NE6 30.00R Newark DRIZZLE 62 60 93 N7 30.01R FOG Laguardia CLOUDY 62 60 93 NE7 30.01R J F K CLOUDY 64 60 87 NE7 30.02R Boston CLOUDY 56 55 97 N9 30.03R FOG Pittsburg CLOUDY 62 57 83 SW5 30.11R Akron CLOUDY 64 55 72 N7 30.13R Cleveland CLOUDY 68 55 63 N12 30.14R Cincinnati PTCLDY 65 61 87 E10 30.15R Columbus CLEAR 57 57 100 CALM 30.16R Detroit PTCLDY 56 51 84 W3 30.19R Chicago O`Hare PTCLDY 63 59 87 CALM 30.16R Minneapolis CLOUDY 67 59 75 S8 30.04R Indianapolis PTCLDY 64 57 78 E8 30.14R Toronto Canada CLOUDY 61 54 77 N15 30.11R $$

USA.gov is the U.S. government's official web portal to all federal, state and local government web resources and services.